Main page
METAR-TAF:

METAR-TAF

Airports :

Midland Airpark

Midland, Texas, United States

latitude: 32-02-11N, longitude: 102-06-03W, elevation: 2801 ft

Current weather observation

The report was made 28 minutes ago, at 00:35 UTC
Wind 15 mph from the Southeast with gusts up to 20 mph
Temperature 61°F
Humidity 39%
Pressure 29.78 in. Hg
Visibility: 10 miles

METAR: KMDD 220035Z AUTO 14013G17KT 10SM 16/02 A2978 RMK AO2 T01550022

Time: 19:03 (01:03 UTC)


TAF: missing

Weather observations and forecasts of more than 4000 airports (METAR and TAF reports).

The available stations are represented by yellow and red dots on the map.

Hover mouse over dot to see the name of the station.

Then click to see weather observations and forecasts.

To change the map : click on the green buttons with a black cross to zoom in, on the green button with a dash to zoom out, or on the green arrows for adjacent maps.


METAR-TAF: